Location: Pedimozza
(42.0500°N, 9.3500°E)
Time: 18:01:32
(UTC+00:00)

SL-16 R/B - Pass Details

Date: 19 August 2019
Orbit: 842 x 846 km, 71.0° (Epoch: 23 September)

Event Time Altitude Azimuth Distance (km) Brightness Sun altitude
Rises 21:05:59 0° 348° (NNW) 3,414 6.3 -26.5°
Reaches altitude 10° 21:09:45 10° 13° (NNE) 2,476 5.1 -26.9°
Maximum altitude 21:12:43 14° 45° (NE) 2,180 4.4 -27.3°
Enters shadow 21:13:55 14° 59° (ENE) 2,230 4.3 -27.4°
